TimePST,TemperatureF,Dew PointF,Humidity,Sea Level PressureIn,VisibilityMPH,Wind Direction,Wind SpeedMPH,Gust SpeedMPH,PrecipitationIn,Events,Conditions,WindDirDegrees,DateUTC
12:56 AM,44.1,37.9,79,30.21,10.0,West,18.4,25.3,N/A,,Overcast,270,2013-02-17 08:56:00
1:56 AM,45.0,37.9,76,30.22,10.0,West,21.9,26.5,N/A,,Overcast,270,2013-02-17 09:56:00
2:23 AM,44.6,37.4,76,30.20,9.0,West,17.3,-,0.00,Rain,Light Rain,280,2013-02-17 10:23:00
2:56 AM,44.1,37.9,79,30.22,9.0,West,18.4,25.3,0.00,Rain,Light Rain,280,2013-02-17 10:56:00
3:56 AM,43.0,37.9,82,30.22,9.0,WNW,13.8,-,0.00,Rain,Light Rain,290,2013-02-17 11:56:00
4:56 AM,43.0,37.9,82,30.22,9.0,West,12.7,-,0.01,Rain,Light Rain,280,2013-02-17 12:56:00
5:56 AM,43.0,37.0,80,30.23,7.0,WSW,12.7,-,0.02,Rain,Light Rain,250,2013-02-17 13:56:00
6:37 AM,42.8,37.4,81,30.21,10.0,West,10.4,-,0.00,,Overcast,270,2013-02-17 14:37:00
6:56 AM,43.0,37.0,80,30.23,10.0,WSW,8.1,-,0.00,,Mostly Cloudy,250,2013-02-17 14:56:00
7:36 AM,39.2,35.6,87,30.22,10.0,East,11.5,-,N/A,,Mostly Cloudy,100,2013-02-17 15:36:00
7:56 AM,39.9,36.0,86,30.24,10.0,East,6.9,-,N/A,,Mostly Cloudy,90,2013-02-17 15:56:00
8:56 AM,39.9,37.0,89,30.25,10.0,East,10.4,-,N/A,,Mostly Cloudy,90,2013-02-17 16:56:00
9:56 AM,41.0,37.0,86,30.26,10.0,East,6.9,-,N/A,,Mostly Cloudy,100,2013-02-17 17:56:00
10:11 AM,42.8,37.4,81,30.25,10.0,East,4.6,-,0.01,Rain,Light Rain,100,2013-02-17 18:11:00
10:56 AM,42.1,37.9,85,30.25,10.0,East,4.6,-,0.01,,Mostly Cloudy,100,2013-02-17 18:56:00
11:07 AM,42.8,37.4,81,30.24,10.0,ENE,4.6,-,0.00,Rain,Light Rain,70,2013-02-17 19:07:00
11:56 AM,41.0,37.0,86,30.26,4.0,NNE,4.6,-,0.06,Rain,Rain,30,2013-02-17 19:56:00
12:11 PM,39.2,35.6,87,30.24,5.0,North,8.1,-,0.01,Rain,Light Rain,10,2013-02-17 20:11:00
12:56 PM,42.1,37.9,85,30.25,10.0,NNE,4.6,-,0.01,,Overcast,30,2013-02-17 20:56:00
1:56 PM,41.0,37.0,86,30.24,10.0,North,6.9,-,N/A,,Overcast,10,2013-02-17 21:56:00
2:56 PM,42.1,37.9,85,30.22,10.0,North,5.8,-,0.00,Rain,Light Rain,360,2013-02-17 22:56:00
3:24 PM,42.8,39.2,87,30.21,10.0,North,4.6,-,0.00,,Overcast,10,2013-02-17 23:24:00
3:56 PM,44.1,39.0,82,30.21,10.0,NNE,4.6,-,0.00,,Overcast,30,2013-02-17 23:56:00
4:56 PM,44.1,37.0,76,30.20,10.0,East,4.6,-,N/A,,Overcast,100,2013-02-18 00:56:00
5:56 PM,39.9,36.0,86,30.19,10.0,East,3.5,-,N/A,,Mostly Cloudy,80,2013-02-18 01:56:00
6:56 PM,39.0,35.1,86,30.18,10.0,Calm,Calm,-,N/A,,Mostly Cloudy,0,2013-02-18 02:56:00
7:56 PM,37.0,34.0,89,30.18,10.0,East,4.6,-,N/A,,Mostly Cloudy,100,2013-02-18 03:56:00
8:56 PM,37.0,34.0,89,30.18,10.0,East,4.6,-,N/A,,Overcast,100,2013-02-18 04:56:00
9:56 PM,37.9,35.1,89,30.17,10.0,East,5.8,-,N/A,,Overcast,100,2013-02-18 05:56:00
10:56 PM,39.0,36.0,89,30.15,10.0,East,5.8,-,N/A,,Overcast,100,2013-02-18 06:56:00
11:56 PM,39.9,36.0,86,30.13,10.0,East,8.1,-,N/A,,Overcast,90,2013-02-18 07:56:00